| time (UTC) | temp F | wind direction | speed MPH | gust MPH | rain 1hr in | rain 24hr in | rain mn in | humidity % | barometer mb |
| 20260510011305 | 82 | 154 | 8.0 | 13.0 | 0.00 | 0.00 | 0.00 | 59 | 1008.3 |
| 20260510010804 | 82 | 144 | 10.0 | 13.0 | 0.00 | 0.00 | 0.00 | 58 | 1008.3 |
| 20260510010305 | 82 | 153 | 8.0 | 16.0 | 0.00 | 0.00 | 0.00 | 57 | 1008.2 |
| 20260510004805 | 83 | 158 | 9.0 | 14.0 | 0.00 | 0.00 | 0.00 | 55 | 1008.2 |
| 20260510004304 | 84 | 163 | 9.0 | 14.0 | 0.00 | 0.00 | 0.00 | 54 | 1008.1 |
| 20260510003805 | 84 | 151 | 9.0 | 15.0 | 0.00 | 0.00 | 0.00 | 53 | 1008.0 |
| 20260510003305 | 84 | 149 | 12.0 | 20.0 | 0.00 | 0.00 | 0.00 | 52 | 1008.0 |
| 20260510001805 | 85 | 146 | 13.0 | 16.0 | 0.00 | 0.00 | 0.00 | 48 | 1007.8 |
| 20260510001304 | 85 | 157 | 10.0 | 17.0 | 0.00 | 0.00 | 0.00 | 47 | 1007.8 |
| 20260510000805 | 85 | 164 | 11.0 | 15.0 | 0.00 | 0.00 | 0.00 | 47 | 1007.7 |
| 20260510000305 | 86 | 150 | 9.0 | 14.0 | 0.00 | 0.00 | 0.00 | 47 | 1007.6 |
| 20260509234805 | 86 | 148 | 9.0 | 14.0 | 0.00 | 0.00 | 0.00 | 44 | 1007.6 |
| 20260509234305 | 86 | 154 | 9.0 | 15.0 | 0.00 | 0.00 | 0.00 | 44 | 1007.6 |
| 20260509233805 | 87 | 164 | 10.0 | 15.0 | 0.00 | 0.00 | 0.00 | 44 | 1007.6 |
| 20260509233304 | 87 | 146 | 10.0 | 15.0 | 0.00 | 0.00 | 0.00 | 44 | 1007.5 |
| 20260509231804 | 87 | 150 | 12.0 | 18.0 | 0.00 | 0.00 | 0.00 | 44 | 1007.5 |
| 20260509231304 | 87 | 155 | 7.0 | 15.0 | 0.00 | 0.00 | 0.00 | 44 | 1007.5 |
| 20260509230805 | 87 | 143 | 6.0 | 15.0 | 0.00 | 0.00 | 0.00 | 43 | 1007.5 |
| 20260509230304 | 87 | 154 | 9.0 | 15.0 | 0.00 | 0.00 | 0.00 | 43 | 1007.4 |
| 20260509224304 | 88 | 164 | 8.0 | 14.0 | 0.00 | 0.00 | 0.00 | 44 | 1007.5 |
| 20260509223304 | 87 | 148 | 10.0 | 18.0 | 0.00 | 0.00 | 0.00 | 44 | 1007.5 |
| 20260509221805 | 90 | 155 | 7.0 | 13.0 | 0.00 | 0.00 | 0.00 | 41 | 1007.4 |
| 20260509221305 | 90 | 130 | 4.0 | 9.0 | 0.00 | 0.00 | 0.00 | 42 | 1007.4 |
| 20260509220804 | 90 | 209 | 1.0 | 3.0 | 0.00 | 0.00 | 0.00 | 42 | 1007.4 |
| 20260509220304 | 89 | 209 | 5.0 | 10.0 | 0.00 | 0.00 | 0.00 | 41 | 1007.4 |
| 20260509214805 | 91 | 23 | 3.0 | 9.0 | 0.00 | 0.00 | 0.00 | 42 | 1007.6 |
| 20260509214305 | 89 | 54 | 1.0 | 9.0 | 0.00 | 0.00 | 0.00 | 44 | 1007.7 |
| 20260509213305 | 90 | 140 | 3.0 | 12.0 | 0.00 | 0.00 | 0.00 | 42 | 1007.8 |
| 20260509210805 | 90 | 111 | 5.0 | 8.0 | 0.00 | 0.00 | 0.00 | 42 | 1008.0 |
| 20260509210305 | 91 | 140 | 4.0 | 12.0 | 0.00 | 0.00 | 0.00 | 41 | 1008.1 |
| 20260509204804 | 94 | 309 | 2.0 | 6.0 | 0.00 | 0.00 | 0.00 | 39 | 1008.3 |
| 20260509204304 | 94 | 289 | 4.0 | 6.0 | 0.00 | 0.00 | 0.00 | 39 | 1008.4 |
| 20260509203805 | 93 | 330 | 3.0 | 8.0 | 0.00 | 0.00 | 0.00 | 41 | 1008.4 |
| 20260509203305 | 92 | 205 | 2.0 | 8.0 | 0.00 | 0.00 | 0.00 | 41 | 1008.6 |
| 20260509200805 | 93 | 326 | 3.0 | 8.0 | 0.00 | 0.00 | 0.00 | 42 | 1009.1 |
| 20260509194805 | 92 | 236 | 3.0 | 6.0 | 0.00 | 0.00 | 0.00 | 43 | 1009.1 |
| 20260509194305 | 92 | 197 | 2.0 | 6.0 | 0.00 | 0.00 | 0.00 | 43 | 1009.0 |
| 20260509193805 | 92 | 234 | 3.0 | 14.0 | 0.00 | 0.00 | 0.00 | 44 | 1009.1 |
| 20260509193305 | 92 | 204 | 2.0 | 10.0 | 0.00 | 0.00 | 0.00 | 42 | 1009.1 |
| 20260509191805 | 92 | 198 | 3.0 | 6.0 | 0.00 | 0.00 | 0.00 | 46 | 1009.3 |
| 20260509191305 | 91 | 306 | 2.0 | 8.0 | 0.00 | 0.00 | 0.00 | 46 | 1009.3 |
| 20260509184805 | 91 | 198 | 2.0 | 6.0 | 0.00 | 0.00 | 0.00 | 49 | 1009.9 |
| 20260509184304 | 91 | 321 | 3.0 | 6.0 | 0.00 | 0.00 | 0.00 | 48 | 1009.9 |
| 20260509183805 | 90 | 279 | 3.0 | 8.0 | 0.00 | 0.00 | 0.00 | 50 | 1009.9 |
| 20260509183304 | 90 | 198 | 4.0 | 10.0 | 0.00 | 0.00 | 0.00 | 49 | 1010.1 |
| 20260509181805 | 89 | 297 | 2.0 | 6.0 | 0.00 | 0.00 | 0.00 | 50 | 1010.2 |
| 20260509180805 | 88 | 289 | 4.0 | 12.0 | 0.00 | 0.00 | 0.00 | 51 | 1010.5 |
| 20260509180304 | 88 | 296 | 6.0 | 12.0 | 0.00 | 0.00 | 0.00 | 50 | 1010.6 |
| 20260509174305 | 87 | 225 | 2.0 | 5.0 | 0.00 | 0.00 | 0.00 | 55 | 1010.8 |
| 20260509173805 | 87 | 244 | 2.0 | 6.0 | 0.00 | 0.00 | 0.00 | 58 | 1010.9 |
| 20260509173305 | 86 | 223 | 1.0 | 10.0 | 0.00 | 0.00 | 0.00 | 59 | 1011.0 |
| 20260509170305 | 84 | 172 | 3.0 | 12.0 | 0.00 | 0.00 | 0.00 | 63 | 1011.1 |
| 20260509164805 | 82 | 161 | 3.0 | 8.0 | 0.00 | 0.00 | 0.00 | 66 | 1011.2 |
| 20260509164305 | 81 | 209 | 2.0 | 8.0 | 0.00 | 0.00 | 0.00 | 69 | 1011.3 |
| 20260509163804 | 80 | 140 | 3.0 | 10.0 | 0.00 | 0.00 | 0.00 | 69 | 1011.3 |
| 20260509163305 | 80 | 152 | 7.0 | 16.0 | 0.00 | 0.00 | 0.00 | 70 | 1011.4 |
| 20260509161304 | 76 | 164 | 5.0 | 13.0 | 0.00 | 0.00 | 0.00 | 78 | 1011.5 |
| 20260509160305 | 76 | 160 | 7.0 | 17.0 | 0.00 | 0.00 | 0.00 | 79 | 1011.5 |
| 20260509154804 | 76 | 181 | 9.0 | 13.0 | 0.00 | 0.00 | 0.00 | 79 | 1011.6 |
| 20260509154305 | 76 | 170 | 6.0 | 16.0 | 0.00 | 0.00 | 0.00 | 79 | 1011.4 |
| 20260509153804 | 76 | 169 | 9.0 | 15.0 | 0.00 | 0.00 | 0.00 | 79 | 1011.3 |
| 20260509153304 | 75 | 170 | 10.0 | 18.0 | 0.00 | 0.00 | 0.00 | 79 | 1011.3 |
| 20260509151304 | 77 | 174 | 8.0 | 14.0 | 0.00 | 0.00 | 0.00 | 77 | 1010.9 |
| 20260509150805 | 77 | 180 | 8.0 | 14.0 | 0.00 | 0.00 | 0.00 | 77 | 1010.9 |
| 20260509150305 | 78 | 169 | 6.0 | 18.0 | 0.00 | 0.00 | 0.00 | 78 | 1010.8 |
| 20260509143805 | 77 | 174 | 6.0 | 12.0 | 0.00 | 0.00 | 0.00 | 79 | 1010.7 |
| 20260509143305 | 77 | 203 | 3.0 | 8.0 | 0.00 | 0.00 | 0.00 | 80 | 1010.7 |
| 20260509141804 | 75 | 184 | 3.0 | 6.0 | 0.00 | 0.00 | 0.00 | 82 | 1010.4 |
| 20260509134804 | 73 | 172 | 4.0 | 12.0 | 0.00 | 0.00 | 0.00 | 85 | 1010.0 |
| 20260509134305 | 73 | 158 | 7.0 | 12.0 | 0.00 | 0.00 | 0.00 | 85 | 1010.1 |
| 20260509133804 | 73 | 172 | 4.0 | 10.0 | 0.00 | 0.00 | 0.00 | 86 | 1010.2 |
| 20260509133305 | 72 | 162 | 7.0 | 13.0 | 0.00 | 0.00 | 0.00 | 86 | 1010.3 |
| 20260509131305 | 71 | 176 | 6.0 | 10.0 | 0.00 | 0.00 | 0.00 | 87 | 1010.4 |
| 20260509130305 | 71 | 186 | 3.0 | 6.0 | 0.00 | 0.00 | 0.00 | 87 | 1010.8 |
| 20260509124805 | 70 | 323 | 0.0 | 1.0 | 0.00 | 0.00 | 0.00 | 87 | 1010.9 |
| 20260509124304 | 70 | 323 | 0.0 | 1.0 | 0.00 | 0.00 | 0.00 | 87 | 1010.9 |
| 20260509123804 | 70 | 323 | 0.0 | 0.0 | 0.00 | 0.00 | 0.00 | 87 | 1010.8 |
| 20260509123305 | 70 | 323 | 1.0 | 3.0 | 0.00 | 0.00 | 0.00 | 87 | 1010.8 |
| 20260509121804 | 70 | 323 | 1.0 | 3.0 | 0.00 | 0.00 | 0.00 | 87 | 1010.7 |
| 20260509121305 | 70 | 323 | 1.0 | 2.0 | 0.00 | 0.00 | 0.00 | 87 | 1010.7 |
| 20260509120805 | 70 | 323 | 2.0 | 3.0 | 0.00 | 0.00 | 0.00 | 87 | 1010.8 |
| 20260509120304 | 70 | 323 | 0.0 | 3.0 | 0.00 | 0.00 | 0.00 | 87 | 1010.9 |
| 20260509114805 | 70 | 324 | 3.0 | 5.0 | 0.00 | 0.00 | 0.00 | 86 | 1011.1 |
| 20260509114304 | 70 | 27 | 1.0 | 2.0 | 0.00 | 0.00 | 0.00 | 86 | 1011.0 |
| 20260509113804 | 70 | 27 | 2.0 | 5.0 | 0.00 | 0.00 | 0.00 | 86 | 1011.0 |
| 20260509113305 | 70 | 355 | 1.0 | 2.0 | 0.00 | 0.00 | 0.00 | 86 | 1011.1 |
| 20260509111804 | 70 | 355 | 0.0 | 1.0 | 0.00 | 0.00 | 0.00 | 86 | 1011.6 |
| 20260509111305 | 70 | 355 | 2.0 | 3.0 | 0.00 | 0.00 | 0.00 | 86 | 1011.8 |
| 20260509110805 | 70 | 355 | 2.0 | 5.0 | 0.00 | 0.00 | 0.00 | 86 | 1011.9 |
| 20260509110305 | 71 | 13 | 2.0 | 5.0 | 0.00 | 0.00 | 0.00 | 86 | 1011.9 |
| 20260509104305 | 71 | 19 | 0.0 | 5.0 | 0.00 | 0.00 | 0.00 | 86 | 1011.9 |
| 20260509103805 | 71 | 355 | 3.0 | 5.0 | 0.00 | 0.00 | 0.00 | 86 | 1012.0 |
| 20260509103304 | 71 | 5 | 2.0 | 6.0 | 0.00 | 0.00 | 0.00 | 86 | 1011.9 |
| 20260509101804 | 71 | 359 | 2.0 | 5.0 | 0.00 | 0.00 | 0.00 | 86 | 1011.8 |
| 20260509101305 | 71 | 5 | 1.0 | 5.0 | 0.00 | 0.00 | 0.00 | 86 | 1011.6 |
| 20260509100805 | 71 | 343 | 3.0 | 5.0 | 0.00 | 0.00 | 0.00 | 86 | 1011.6 |
| 20260509100305 | 71 | 0 | 2.0 | 5.0 | 0.00 | 0.00 | 0.00 | 86 | 1011.4 |
| 20260509094804 | 71 | 169 | 0.0 | 0.0 | 0.00 | 0.00 | 0.00 | 86 | 1010.8 |
| 20260509094304 | 71 | 169 | 0.0 | 0.0 | 0.00 | 0.00 | 0.00 | 86 | 1010.6 |
| 20260509093305 | 71 | 169 | 0.0 | 1.0 | 0.00 | 0.00 | 0.00 | 86 | 1010.4 |
| 20260509091804 | 71 | 169 | 0.0 | 0.0 | 0.00 | 0.00 | 0.00 | 86 | 1010.4 |
| 20260509091305 | 71 | 169 | 0.0 | 1.0 | 0.00 | 0.00 | 0.00 | 86 | 1010.3 |
| 20260509090804 | 71 | 169 | 0.0 | 1.0 | 0.00 | 0.00 | 0.00 | 86 | 1010.4 |
| 20260509084805 | 71 | 169 | 0.0 | 0.0 | 0.00 | 0.00 | 0.00 | 85 | 1010.4 |
| 20260509084304 | 71 | 169 | 0.0 | 2.0 | 0.00 | 0.00 | 0.00 | 85 | 1010.5 |
| 20260509083805 | 71 | 169 | 1.0 | 2.0 | 0.00 | 0.00 | 0.00 | 85 | 1010.5 |
| 20260509083305 | 71 | 169 | 2.0 | 2.0 | 0.00 | 0.00 | 0.00 | 85 | 1010.6 |
| 20260509081804 | 71 | 169 | 1.0 | 2.0 | 0.00 | 0.00 | 0.00 | 85 | 1010.8 |
| 20260509081305 | 71 | 169 | 2.0 | 5.0 | 0.00 | 0.00 | 0.00 | 85 | 1010.9 |
| 20260509080804 | 71 | 169 | 0.0 | 1.0 | 0.00 | 0.00 | 0.00 | 85 | 1010.9 |
| 20260509074804 | 72 | 169 | 0.0 | 1.0 | 0.00 | 0.00 | 0.00 | 85 | 1011.0 |
| 20260509074304 | 72 | 169 | 0.0 | 2.0 | 0.00 | 0.00 | 0.00 | 85 | 1010.9 |
| 20260509073805 | 72 | 169 | 0.0 | 2.0 | 0.00 | 0.00 | 0.00 | 85 | 1010.8 |
| 20260509073305 | 72 | 169 | 0.0 | 5.0 | 0.00 | 0.00 | 0.00 | 85 | 1010.6 |
| 20260509071805 | 71 | 169 | 1.0 | 1.0 | 0.00 | 0.00 | 0.00 | 84 | 1011.2 |
| 20260509071304 | 71 | 169 | 0.0 | 2.0 | 0.00 | 0.00 | 0.00 | 84 | 1011.1 |
| 20260509070805 | 71 | 169 | 1.0 | 2.0 | 0.00 | 0.00 | 0.00 | 84 | 1011.2 |
| 20260509070305 | 71 | 169 | 0.0 | 2.0 | 0.00 | 0.00 | 0.00 | 84 | 1011.3 |
| 20260509064805 | 71 | 169 | 0.0 | 0.0 | 0.00 | 0.00 | 0.00 | 84 | 1011.0 |
| 20260509064305 | 71 | 169 | 0.0 | 0.0 | 0.00 | 0.00 | 0.00 | 84 | 1010.9 |
| 20260509063304 | 71 | 169 | 0.0 | 1.0 | 0.00 | 0.00 | 0.00 | 84 | 1010.9 |
| 20260509061804 | 71 | 169 | 0.0 | 1.0 | 0.00 | 0.00 | 0.00 | 84 | 1011.1 |
| 20260509061305 | 71 | 169 | 0.0 | 2.0 | 0.00 | 0.00 | 0.00 | 84 | 1011.0 |
| 20260509060804 | 71 | 169 | 1.0 | 6.0 | 0.00 | 0.00 | 0.00 | 84 | 1010.9 |
| 20260509054304 | 71 | 170 | 5.0 | 10.0 | 0.00 | 0.00 | 0.00 | 84 | 1010.6 |
| 20260509053804 | 71 | 179 | 6.0 | 10.0 | 0.00 | 0.00 | 0.00 | 84 | 1010.6 |
| 20260509053304 | 71 | 169 | 9.0 | 16.0 | 0.00 | 0.00 | 0.00 | 84 | 1010.5 |
| 20260509051804 | 70 | 161 | 11.0 | 17.0 | 0.00 | 0.00 | 0.00 | 84 | 1009.7 |
| 20260509051304 | 70 | 162 | 8.0 | 15.0 | 0.00 | 0.00 | 0.00 | 84 | 1009.7 |
| 20260509050305 | 71 | 151 | 11.0 | 16.0 | 0.00 | 0.00 | 0.00 | 83 | 1009.6 |
| 20260509044804 | 71 | 148 | 3.0 | 9.0 | 0.00 | 0.00 | 0.00 | 83 | 1009.7 |
| 20260509044304 | 71 | 133 | 2.0 | 6.0 | 0.00 | 0.00 | 0.00 | 82 | 1009.8 |
| 20260509043804 | 71 | 98 | 1.0 | 3.0 | 0.00 | 0.00 | 0.00 | 82 | 1009.8 |
| 20260509043304 | 71 | 98 | 3.0 | 6.0 | 0.00 | 0.00 | 0.00 | 82 | 1010.0 |
| 20260509041804 | 71 | 125 | 3.0 | 8.0 | 0.00 | 0.00 | 0.00 | 82 | 1010.3 |
| 20260509040804 | 71 | 136 | 3.0 | 8.0 | 0.00 | 0.00 | 0.00 | 82 | 1010.3 |
| 20260509034804 | 72 | 144 | 5.0 | 12.0 | 0.00 | 0.00 | 0.00 | 81 | 1010.2 |
| 20260509034304 | 72 | 160 | 5.0 | 13.0 | 0.00 | 0.00 | 0.00 | 81 | 1010.1 |
| 20260509033804 | 72 | 165 | 7.0 | 13.0 | 0.00 | 0.00 | 0.00 | 81 | 1010.0 |
| 20260509031804 | 72 | 157 | 6.0 | 12.0 | 0.00 | 0.00 | 0.00 | 81 | 1010.0 |
| 20260509030805 | 72 | 159 | 5.0 | 8.0 | 0.00 | 0.00 | 0.00 | 81 | 1010.0 |
| 20260509030304 | 72 | 153 | 5.0 | 8.0 | 0.00 | 0.00 | 0.00 | 80 | 1010.0 |
| 20260509024804 | 73 | 164 | 5.0 | 9.0 | 0.00 | 0.00 | 0.00 | 80 | 1009.8 |
| 20260509024304 | 73 | 166 | 5.0 | 9.0 | 0.00 | 0.00 | 0.00 | 79 | 1009.8 |
| 20260509023805 | 73 | 156 | 6.0 | 10.0 | 0.00 | 0.00 | 0.00 | 79 | 1009.7 |
| 20260509021304 | 74 | 160 | 7.0 | 13.0 | 0.00 | 0.00 | 0.00 | 78 | 1009.3 |
| 20260509020804 | 74 | 160 | 8.0 | 13.0 | 0.00 | 0.00 | 0.00 | 78 | 1009.2 |
| 20260509014804 | 74 | 161 | 10.0 | 15.0 | 0.00 | 0.00 | 0.00 | 77 | 1009.0 |
| 20260509014304 | 75 | 162 | 10.0 | 15.0 | 0.00 | 0.00 | 0.00 | 76 | 1009.0 |
| 20260509013804 | 75 | 161 | 9.0 | 16.0 | 0.00 | 0.00 | 0.00 | 76 | 1008.9 |
| 20260509013305 | 75 | 159 | 9.0 | 15.0 | 0.00 | 0.00 | 0.00 | 76 | 1008.7 |
| 20260509011804 | 75 | 166 | 9.0 | 15.0 | 0.00 | 0.00 | 0.00 | 75 | 1008.7 |